Location: Chandrammap?lem
(16.9200°N, 81.0051°E)
Time: 05:40:12
(UTC+00:00)

Cosmos 1437 Rocket - Pass Details

Date: 29 May 2024
Orbit: 478 x 532 km, 81.2° (Epoch: 19 June)

Event Time Altitude Azimuth Distance (km) Brightness Sun altitude
Exits shadow 22:40:32 14° 172° (S) 1,548 4.9 -18.2°
Maximum altitude 22:43:48 58° 95° (E) 623 3.3 -17.5°
Drops below altitude 10° 22:47:40 10° 16° (NNE) 1,780 6.1 -16.7°
Sets 22:49:50 0° 12° (NNE) 2,669 7.0 -16.3°
